THOR ABLESTAR DEB, 1504

Orbit data source: Space-Track

THOR ABLESTAR DEB, 1504 is space debris in LEO originally from a launch on Fri, 13 Aug 1965 UTC launched from the Air Force Western Test Range (AFWTR). Debris objects in space refer to the collection of defunct objects orbiting the Earth. Examples of debris include non-operational satellites, rocket bodies, and fragments generated from explosions, collisions, or faulty payload assembly.

Loading next visibility...
Identifier
1504, 1965-065A
Orbit
LEO
Country
Flag of USUS
Related business
Manufacturer
NRL
Mission
Spacecraft
Bus & Motor
Unknown
Mass
Unknown
Launch date (UTC)
1965-08-13 (60 years ago)
Launch vehicle
Unknown
Launch site
Air Force Western Test Range (AFWTR)
Object type
Payload
Rocket body
Debris
Shape & HBR
Unknown shape, 0.1 m
Radar Cross Section
Small (<0.1 m²)

Expand to show TLE details & history
Last TLE update: 8 hours ago

TLE from 8 hours ago
0 THOR ABLESTAR DEB
1  1504U 65065A   25343.18384325  .00000317  00000-0  55439-3 0  9993
2  1504  89.9553 242.4359 0067747  38.4118 114.3306 13.40329578942258
Epoch: 2025-12-09T04:24Z
TLE epoch observation values (Epoch: 2025-12-09T04:24:44.056Z)
Latitude
26.58539°
Longitude
-81.9421°
Altitude
1,132.517 km
Speed
7.278 km/s
True Right ascension
04h 09m 39s
True Declination
26° 27' 18"
Sunlit
Object was in full shadow at epoch
Visualization orbit readout
Latitude
Unknown
Longitude
Unknown
Altitude
Unknown
Speed
Unknown
Apparent Right ascension
Unknown
Apparent Declination
Unknown
Sunlit
N/A
Visualization observer readout
Local Sidereal Time
10:52:00
Azimuth
Unknown
Elevation
Unknown
Doppler factor
Unknown
Orbital elements
Apogee altitude
1,155.812 km
Perigee altitude
1,054.419 km
Semi-major axis
7,483.253 km
Eccentricity
0.00677
Inclination
89.9553°
RAAN
242.4359°
Arg. of periapsis
38.4118°
True anomaly
115.0355°
Mean anomaly
114.3306°
Eccentric anomaly
114.6833°
Mean motion
3.3528 °/min
Orbital period
107.37 mins
BSTAR
0.00055439
Loading maneuver chart data...
Computing Atmospheric mass density...
Loading historical data...
Loading historical data...
Loading historical data...
Loading historical data...
Loading historical data...
Loading historical data...
Loading historical data...

Documentation

Showing up to 5 results
|